• Em Portugal
  • Lista de países
  • Para 7 dias
  • Temperatura da água
  • Mapas de satélite
  • Mapa do tempo
  • Widgets de tempo
  • user-avatar
    Iniciar Sessão

    Previsão horária em Podwojponie

    Hoje, 24 Junho, Domingo

    Tempo Temperatura Precipitação Vento Pressão Humidade
    00:00 +8°C° 0 mm 2 m/s 741 mmHg 94%
    01:00 +8°C° 0 mm 2 m/s 741 mmHg 95%
    02:00 +7°C° 0 mm 2 m/s 741 mmHg 95%
    03:00 +7°C° 0 mm 2 m/s 741 mmHg 95%
    04:00 +7°C° 0 mm 2 m/s 741 mmHg 95%
    05:00 +7°C° 0 mm 2 m/s 741 mmHg 95%
    06:00 +8°C° 0 mm 3 m/s 741 mmHg 90%
    07:00 +10°C° 0 mm 3 m/s 741 mmHg 85%
    08:00 +11°C° 0 mm 3 m/s 741 mmHg 81%
    09:00 +12°C° 0,3 mm 3 m/s 741 mmHg 78%
    10:00 +13°C° 0,3 mm 3 m/s 741 mmHg 75%
    11:00 +14°C° 0,3 mm 3 m/s 741 mmHg 73%
    12:00 +14°C° 0,5 mm 4 m/s 741 mmHg 76%
    13:00 +13°C° 0,5 mm 4 m/s 741 mmHg 80%
    14:00 +13°C° 0,5 mm 4 m/s 741 mmHg 83%
    15:00 +13°C° 0,4 mm 4 m/s 741 mmHg 83%
    16:00 +13°C° 0,4 mm 4 m/s 741 mmHg 83%
    17:00 +13°C° 0,4 mm 4 m/s 741 mmHg 84%
    18:00 +12°C° 0,4 mm 3 m/s 741 mmHg 86%
    19:00 +13°C° 0,4 mm 2 m/s 741 mmHg 89%
    20:00 +12°C° 0,4 mm 2 m/s 741 mmHg 91%
    21:00 +12°C° 0,1 mm 2 m/s 741 mmHg 93%
    22:00 +10°C° 0,1 mm 2 m/s 741 mmHg 94%
    23:00 +9°C° 0,1 mm 2 m/s 742 mmHg 95%

    Amanhã, 25 Junho, Segunda-feira

    Tempo Temperatura Precipitação Vento Pressão Humidade
    00:00 +9°C° 0,1 mm 3 m/s 742 mmHg 95%
    01:00 +9°C° 0,1 mm 3 m/s 742 mmHg 96%
    02:00 +8°C° 0,1 mm 3 m/s 742 mmHg 97%
    03:00 +9°C° 0,3 mm 3 m/s 742 mmHg 97%
    04:00 +9°C° 0,3 mm 3 m/s 742 mmHg 97%
    05:00 +9°C° 0,3 mm 3 m/s 742 mmHg 97%
    06:00 +9°C° 0,6 mm 3 m/s 742 mmHg 96%
    07:00 +10°C° 0,6 mm 4 m/s 742 mmHg 94%
    08:00 +10°C° 0,6 mm 4 m/s 742 mmHg 93%
    09:00 +11°C° 0,8 mm 4 m/s 742 mmHg 92%
    10:00 +10°C° 0,8 mm 5 m/s 742 mmHg 92%
    11:00 +12°C° 0,8 mm 5 m/s 742 mmHg 91%
    12:00 +12°C° 0,5 mm 5 m/s 742 mmHg 91%
    13:00 +12°C° 0,5 mm 5 m/s 742 mmHg 90%
    14:00 +13°C° 0,5 mm 5 m/s 742 mmHg 89%
    15:00 +13°C° 0,5 mm 5 m/s 742 mmHg 89%
    16:00 +13°C° 0,5 mm 5 m/s 742 mmHg 88%
    17:00 +13°C° 0,5 mm 4 m/s 742 mmHg 87%
    18:00 +13°C° 0,3 mm 4 m/s 743 mmHg 89%
    19:00 +12°C° 0,3 mm 4 m/s 743 mmHg 90%
    20:00 +12°C° 0,3 mm 3 m/s 743 mmHg 91%
    21:00 +12°C° 0,3 mm 3 m/s 743 mmHg 91%
    22:00 +12°C° 0,3 mm 4 m/s 743 mmHg 92%
    23:00 +11°C° 0,3 mm 4 m/s 743 mmHg 92%

    Depois de amanhã, 26 Junho, Terça-feira

    Tempo Temperatura Precipitação Vento Pressão Humidade
    00:00 +11°C° 0,4 mm 4 m/s 743 mmHg 93%
    01:00 +11°C° 0,4 mm 3 m/s 743 mmHg 95%
    02:00 +11°C° 0,4 mm 3 m/s 743 mmHg 96%
    03:00 +11°C° 0,3 mm 3 m/s 743 mmHg 96%
    04:00 +11°C° 0,3 mm 3 m/s 743 mmHg 97%
    05:00 +10°C° 0,3 mm 2 m/s 744 mmHg 97%
    06:00 +12°C° 0,1 mm 2 m/s 744 mmHg 96%
    07:00 +12°C° 0,1 mm 2 m/s 744 mmHg 94%
    08:00 +12°C° 0,1 mm 2 m/s 744 mmHg 93%
    09:00 +12°C° 0,2 mm 3 m/s 745 mmHg 90%
    10:00 +13°C° 0,2 mm 3 m/s 745 mmHg 87%
    11:00 +14°C° 0,2 mm 3 m/s 745 mmHg 84%
    12:00 +16°C° 0,5 mm 3 m/s 745 mmHg 80%
    13:00 +17°C° 0,5 mm 3 m/s 745 mmHg 77%
    14:00 +18°C° 0,5 mm 2 m/s 745 mmHg 73%
    15:00 +18°C° 0,8 mm 2 m/s 745 mmHg 75%
    16:00 +18°C° 0,8 mm 3 m/s 745 mmHg 77%
    17:00 +18°C° 0,8 mm 3 m/s 745 mmHg 78%
    18:00 +17°C° 0,4 mm 2 m/s 745 mmHg 82%
    19:00 +16°C° 0,4 mm 2 m/s 745 mmHg 86%
    20:00 +16°C° 0,4 mm 2 m/s 745 mmHg 90%
    21:00 +15°C° 0,5 mm 2 m/s 745 mmHg 92%
    22:00 +13°C° 0,5 mm 2 m/s 746 mmHg 94%
    23:00 +12°C° 0,5 mm 2 m/s 746 mmHg 96%

    27 Junho, Quarta-feira

    Tempo Temperatura Precipitação Vento Pressão Humidade
    00:00 +12°C° 0 mm 2 m/s 746 mmHg 96%
    01:00 +10°C° 0 mm 2 m/s 746 mmHg 97%
    02:00 +10°C° 0 mm 2 m/s 746 mmHg 97%
    03:00 +10°C° 0 mm 2 m/s 746 mmHg 97%
    04:00 +10°C° 0 mm 2 m/s 746 mmHg 97%
    05:00 +9°C° 0 mm 2 m/s 746 mmHg 97%
    06:00 +12°C° 0 mm 2 m/s 747 mmHg 94%
    07:00 +14°C° 0 mm 2 m/s 747 mmHg 90%
    08:00 +16°C° 0 mm 3 m/s 747 mmHg 86%
    09:00 +17°C° 0,1 mm 3 m/s 747 mmHg 79%
    10:00 +19°C° 0,1 mm 3 m/s 748 mmHg 72%
    11:00 +20°C° 0,1 mm 4 m/s 748 mmHg 65%
    12:00 +21°C° 0,3 mm 4 m/s 748 mmHg 63%
    13:00 +22°C° 0,3 mm 4 m/s 748 mmHg 62%
    14:00 +22°C° 0,3 mm 4 m/s 748 mmHg 61%
    15:00 +22°C° 0,4 mm 4 m/s 748 mmHg 65%
    16:00 +21°C° 0,4 mm 4 m/s 748 mmHg 70%
    17:00 +21°C° 0,4 mm 4 m/s 748 mmHg 74%
    18:00 +20°C° 0,1 mm 4 m/s 748 mmHg 79%
    19:00 +19°C° 0,1 mm 3 m/s 748 mmHg 83%
    20:00 +18°C° 0,1 mm 3 m/s 748 mmHg 88%
    21:00 +17°C° 0,2 mm 3 m/s 748 mmHg 90%
    22:00 +17°C° 0,2 mm 3 m/s 748 mmHg 92%
    23:00 +16°C° 0,2 mm 3 m/s 748 mmHg 94%

    28 Junho, Quinta-feira

    Tempo Temperatura Precipitação Vento Pressão Humidade
    00:00 +16°C° 0,1 mm 3 m/s 748 mmHg 94%
    01:00 +14°C° 0,1 mm 3 m/s 748 mmHg 95%
    02:00 +14°C° 0,1 mm 3 m/s 748 mmHg 95%
    03:00 +14°C° 0 mm 4 m/s 747 mmHg 95%
    04:00 +15°C° 0 mm 4 m/s 747 mmHg 95%
    05:00 +15°C° 0 mm 4 m/s 747 mmHg 96%
    06:00 +16°C° 0,2 mm 5 m/s 747 mmHg 94%
    07:00 +17°C° 0,2 mm 5 m/s 746 mmHg 91%
    08:00 +19°C° 0,2 mm 6 m/s 746 mmHg 89%
    09:00 +20°C° 0,2 mm 6 m/s 746 mmHg 85%
    10:00 +21°C° 0,2 mm 6 m/s 745 mmHg 80%
    11:00 +22°C° 0,2 mm 7 m/s 745 mmHg 76%
    12:00 +23°C° 0,3 mm 7 m/s 745 mmHg 75%
    13:00 +24°C° 0,3 mm 7 m/s 744 mmHg 75%
    14:00 +24°C° 0,3 mm 7 m/s 744 mmHg 74%
    15:00 +23°C° 1,6 mm 7 m/s 743 mmHg 78%
    16:00 +22°C° 1,6 mm 6 m/s 743 mmHg 83%
    17:00 +22°C° 1,6 mm 5 m/s 742 mmHg 87%
    18:00 +21°C° 2,8 mm 5 m/s 742 mmHg 89%
    19:00 +21°C° 2,8 mm 5 m/s 742 mmHg 91%
    20:00 +20°C° 2,8 mm 5 m/s 742 mmHg 93%
    21:00 +20°C° 2,2 mm 5 m/s 741 mmHg 94%
    22:00 +20°C° 2,2 mm 5 m/s 741 mmHg 94%
    23:00 +20°C° 2,2 mm 5 m/s 741 mmHg 95%

    29 Junho, Sexta-feira

    Tempo Temperatura Precipitação Vento Pressão Humidade
    00:00 +20°C° 0,4 mm 5 m/s 740 mmHg 95%
    01:00 +20°C° 0,4 mm 5 m/s 740 mmHg 95%
    02:00 +20°C° 0,4 mm 5 m/s 740 mmHg 95%
    03:00 +20°C° 0,1 mm 4 m/s 739 mmHg 96%
    04:00 +20°C° 0,1 mm 4 m/s 739 mmHg 96%
    05:00 +19°C° 0,1 mm 4 m/s 739 mmHg 97%
    06:00 +20°C° 0 mm 4 m/s 739 mmHg 96%
    07:00 +21°C° 0 mm 4 m/s 739 mmHg 95%
    08:00 +21°C° 0 mm 4 m/s 739 mmHg 93%
    09:00 +22°C° 0,5 mm 4 m/s 739 mmHg 91%
    10:00 +24°C° 0,5 mm 3 m/s 739 mmHg 88%
    11:00 +24°C° 0,5 mm 3 m/s 739 mmHg 85%
    12:00 +25°C° 0,6 mm 3 m/s 739 mmHg 82%
    13:00 +25°C° 0,6 mm 3 m/s 738 mmHg 80%
    14:00 +26°C° 0,6 mm 3 m/s 738 mmHg 78%
    15:00 +26°C° 0,3 mm 3 m/s 738 mmHg 77%
    16:00 +26°C° 0,3 mm 3 m/s 738 mmHg 76%
    17:00 +26°C° 0,3 mm 3 m/s 738 mmHg 75%
    18:00 +25°C° 0,2 mm 2 m/s 738 mmHg 79%
    19:00 +24°C° 0,2 mm 2 m/s 738 mmHg 83%
    20:00 +23°C° 0,2 mm 2 m/s 738 mmHg 87%
    21:00 +21°C° 0 mm 2 m/s 738 mmHg 90%
    22:00 +19°C° 0 mm 2 m/s 738 mmHg 92%
    23:00 +18°C° 0 mm 2 m/s 738 mmHg 95%
    Mostrar mais